DAL1281 KSAN-KOAK

Flight info

Callsign DAL1281
Flight time 1h 0m
Altitude 38000
Route PADRZ2 OROSZ COREZ RGOOD EMZOH4
Aircraft A20N/M-SDE2E3FGHIRWXY/LB1

Departure

Time 2026-05-07 03:20
Airport San Diego International Airport (KSAN)

Arrival

Time 2026-05-07 04:21
Airport San Francisco Bay Oakland International Airport (KOAK)
Time Latitude Longitude Altitude Speed Heading
2026-05-07 03:04 32.73401 -117.18318 27 ft 0 kts 104°
2026-05-07 03:14 32.73409 -117.18345 32 ft 4 kts 114°
2026-05-07 03:15 32.73424 -117.18375 27 ft 4 kts 135°
2026-05-07 03:15 32.73432 -117.18383 28 ft 0 kts 147°
2026-05-07 03:17 32.73431 -117.18383 28 ft 1 kts 148°
2026-05-07 03:17 32.73425 -117.18383 29 ft 2 kts 178°
2026-05-07 03:17 32.73387 -117.18398 30 ft 10 kts 201°
2026-05-07 03:18 32.73321 -117.18330 31 ft 19 kts 111°
2026-05-07 03:18 32.73290 -117.18207 29 ft 0 kts 107°
2026-05-07 03:18 32.73285 -117.18191 31 ft 7 kts 107°
2026-05-07 03:18 32.73261 -117.18095 28 ft 15 kts 107°
2026-05-07 03:19 32.73227 -117.17956 30 ft 20 kts 105°
2026-05-07 03:19 32.73188 -117.17796 32 ft 15 kts 107°
2026-05-07 03:19 32.73174 -117.17738 31 ft 12 kts 106°
2026-05-07 03:19 32.73120 -117.17666 30 ft 15 kts 189°
2026-05-07 03:20 32.73065 -117.17729 27 ft 20 kts 283°
2026-05-07 03:20 32.73174 -117.18235 33 ft 103 kts 286°
2026-05-07 03:20 32.73436 -117.19286 237 ft 142 kts 288°
2026-05-07 03:20 32.73744 -117.20362 1093 ft 141 kts 302°
2026-05-07 03:21 32.74319 -117.21376 1745 ft 156 kts 305°
2026-05-07 03:21 32.74948 -117.22520 2255 ft 175 kts 304°
2026-05-07 03:21 32.75643 -117.23811 2755 ft 197 kts 303°
2026-05-07 03:21 32.76425 -117.25271 3208 ft 219 kts 303°
2026-05-07 03:22 32.77291 -117.26889 3648 ft 241 kts 303°
2026-05-07 03:22 32.78205 -117.28601 4332 ft 254 kts 304°
2026-05-07 03:22 32.79178 -117.30424 5070 ft 265 kts 304°
2026-05-07 03:22 32.80218 -117.32260 5965 ft 270 kts 310°
2026-05-07 03:23 32.81377 -117.34042 6850 ft 275 kts 310°
2026-05-07 03:23 32.82543 -117.35841 7550 ft 281 kts 310°
2026-05-07 03:23 32.83737 -117.37690 7872 ft 283 kts 310°
2026-05-07 03:23 32.84945 -117.39565 8344 ft 288 kts 310°
2026-05-07 03:24 32.86159 -117.41453 9330 ft 287 kts 311°
2026-05-07 03:24 32.87384 -117.43359 10180 ft 293 kts 311°
2026-05-07 03:24 32.88669 -117.45353 10595 ft 315 kts 311°
2026-05-07 03:24 32.90052 -117.47492 10871 ft 338 kts 311°
2026-05-07 03:25 32.91506 -117.49751 11492 ft 347 kts 311°
2026-05-07 03:25 32.92972 -117.52038 12267 ft 352 kts 311°
2026-05-07 03:25 32.94474 -117.54382 13061 ft 356 kts 311°
2026-05-07 03:25 32.95989 -117.56747 13821 ft 361 kts 311°
2026-05-07 03:26 32.97523 -117.59142 14538 ft 365 kts 311°
2026-05-07 03:26 32.99068 -117.61553 15298 ft 367 kts 311°
2026-05-07 03:26 33.00621 -117.63978 16021 ft 370 kts 311°
2026-05-07 03:26 33.02191 -117.66429 16676 ft 374 kts 311°
2026-05-07 03:27 33.03774 -117.68902 17397 ft 377 kts 311°
2026-05-07 03:27 33.05373 -117.71394 18099 ft 379 kts 313°
2026-05-07 03:27 33.07151 -117.73715 18747 ft 379 kts 320°
2026-05-07 03:27 33.09114 -117.75745 19291 ft 381 kts 323°
2026-05-07 03:28 33.11146 -117.77796 19881 ft 383 kts 323°
2026-05-07 03:28 33.13183 -117.79867 20486 ft 386 kts 323°
2026-05-07 03:28 33.15232 -117.81954 21059 ft 389 kts 323°
2026-05-07 03:28 33.17299 -117.84060 21647 ft 392 kts 323°
2026-05-07 03:29 33.19633 -117.86440 22286 ft 395 kts 323°
2026-05-07 03:29 33.23922 -117.90656 23380 ft 401 kts 325°
2026-05-07 03:29 33.28256 -117.94851 24348 ft 407 kts 325°
2026-05-07 03:29 33.32716 -117.99198 25263 ft 412 kts 325°
2026-05-07 03:30 33.37181 -118.03566 26140 ft 418 kts 325°
2026-05-07 03:30 33.41717 -118.08010 26939 ft 423 kts 325°
2026-05-07 03:30 33.46236 -118.12444 27733 ft 428 kts 325°
2026-05-07 03:30 33.50866 -118.16994 28504 ft 433 kts 325°
2026-05-07 03:31 33.55551 -118.21587 29210 ft 437 kts 327°
2026-05-07 03:31 33.60711 -118.25335 29866 ft 433 kts 339°
2026-05-07 03:31 33.66244 -118.28361 30491 ft 437 kts 339°
2026-05-07 03:31 33.71793 -118.31432 31092 ft 441 kts 339°
2026-05-07 03:32 33.77362 -118.34498 31877 ft 439 kts 340°
2026-05-07 03:32 33.82989 -118.37328 32640 ft 436 kts 341°
2026-05-07 03:32 33.88593 -118.40114 33396 ft 434 kts 341°
2026-05-07 03:32 33.94169 -118.42920 34121 ft 432 kts 341°
2026-05-07 03:33 33.99703 -118.45720 34700 ft 430 kts 341°
2026-05-07 03:33 34.05216 -118.48517 35229 ft 429 kts 341°
2026-05-07 03:33 34.10720 -118.51315 35722 ft 428 kts 341°
2026-05-07 03:33 34.16137 -118.54071 36175 ft 427 kts 341°
2026-05-07 03:34 34.21618 -118.56865 36608 ft 427 kts 341°
2026-05-07 03:34 34.27088 -118.59658 37035 ft 426 kts 341°
2026-05-07 03:34 34.30309 -118.61304 37271 ft 425 kts 341°
2026-05-07 03:34 34.33035 -118.62686 37473 ft 424 kts 341°
2026-05-07 03:35 34.35769 -118.64035 37648 ft 425 kts 342°
2026-05-07 03:35 34.38504 -118.65373 37843 ft 424 kts 342°
2026-05-07 03:35 34.41243 -118.66727 37955 ft 426 kts 340°
2026-05-07 03:35 34.43916 -118.68306 38074 ft 428 kts 335°
2026-05-07 03:36 34.46501 -118.70123 38067 ft 428 kts 333°
2026-05-07 03:36 34.51641 -118.73757 38071 ft 428 kts 334°
2026-05-07 03:37 34.56785 -118.77383 38080 ft 428 kts 333°
2026-05-07 03:37 34.61928 -118.81024 38077 ft 427 kts 334°
2026-05-07 03:38 34.67030 -118.84642 38102 ft 428 kts 333°
2026-05-07 03:38 34.72175 -118.88299 38113 ft 429 kts 333°
2026-05-07 03:39 34.77361 -118.91988 38105 ft 435 kts 333°
2026-05-07 03:39 34.82624 -118.95735 38094 ft 440 kts 333°
2026-05-07 03:40 34.87914 -118.99514 38105 ft 439 kts 333°
2026-05-07 03:40 34.93185 -119.03284 38105 ft 440 kts 333°
2026-05-07 03:41 34.98461 -119.07055 38095 ft 438 kts 333°
2026-05-07 03:41 35.03719 -119.10827 38090 ft 438 kts 333°
2026-05-07 03:42 35.08972 -119.14600 38083 ft 438 kts 333°
2026-05-07 03:42 35.14224 -119.18377 38072 ft 438 kts 333°
2026-05-07 03:43 35.19433 -119.22127 38062 ft 437 kts 333°
2026-05-07 03:43 35.24670 -119.25905 38053 ft 437 kts 333°
2026-05-07 03:44 35.29908 -119.29689 38051 ft 437 kts 333°
2026-05-07 03:44 35.35146 -119.33478 38049 ft 437 kts 332°
2026-05-07 03:45 35.40392 -119.37278 38059 ft 438 kts 332°
2026-05-07 03:45 35.45641 -119.41088 38069 ft 438 kts 332°
2026-05-07 03:46 35.50902 -119.44911 38071 ft 439 kts 332°
2026-05-07 03:46 35.56042 -119.48873 38096 ft 440 kts 326°
2026-05-07 03:47 35.60805 -119.53641 38088 ft 441 kts 323°
2026-05-07 03:47 35.65531 -119.58448 38074 ft 441 kts 323°
2026-05-07 03:48 35.70260 -119.63271 38079 ft 441 kts 323°
2026-05-07 03:48 35.74976 -119.68099 38088 ft 440 kts 323°
2026-05-07 03:49 35.79682 -119.72926 38084 ft 440 kts 323°
2026-05-07 03:49 35.84353 -119.77725 38081 ft 440 kts 323°
2026-05-07 03:50 35.89046 -119.82553 38083 ft 439 kts 323°
2026-05-07 03:50 35.93572 -119.87633 38076 ft 440 kts 319°
2026-05-07 03:51 35.97993 -119.92868 38078 ft 440 kts 319°
2026-05-07 03:51 36.02411 -119.98096 38083 ft 440 kts 319°
2026-05-07 03:52 36.06828 -120.03338 38095 ft 439 kts 319°
2026-05-07 03:52 36.11195 -120.08536 38090 ft 428 kts 319°
2026-05-07 03:53 36.15442 -120.13597 38092 ft 428 kts 319°
2026-05-07 03:53 36.19749 -120.18734 38098 ft 429 kts 319°
2026-05-07 03:54 36.24039 -120.23862 38089 ft 427 kts 318°
2026-05-07 03:54 36.28294 -120.28956 38094 ft 428 kts 318°
2026-05-07 03:55 36.32567 -120.34080 38077 ft 427 kts 318°
2026-05-07 03:55 36.34699 -120.36641 37484 ft 426 kts 318°
2026-05-07 03:55 36.36842 -120.39213 36323 ft 432 kts 318°
2026-05-07 03:55 36.39023 -120.41833 34937 ft 442 kts 318°
2026-05-07 03:56 36.41251 -120.44513 33561 ft 450 kts 318°
2026-05-07 03:56 36.43506 -120.47229 32231 ft 454 kts 317°
2026-05-07 03:56 36.45772 -120.49963 31388 ft 453 kts 317°
2026-05-07 03:56 36.48027 -120.52686 30852 ft 448 kts 317°
2026-05-07 03:57 36.50240 -120.55360 30433 ft 441 kts 317°
2026-05-07 03:57 36.52433 -120.58012 29791 ft 438 kts 317°
2026-05-07 03:57 36.54578 -120.60590 29426 ft 428 kts 319°
2026-05-07 03:57 36.56759 -120.63045 29147 ft 418 kts 320°
2026-05-07 03:58 36.58933 -120.65412 28651 ft 413 kts 321°
2026-05-07 03:58 36.61090 -120.67755 28146 ft 409 kts 321°
2026-05-07 03:58 36.63212 -120.70077 27641 ft 404 kts 320°
2026-05-07 03:58 36.65306 -120.72384 27236 ft 401 kts 320°
2026-05-07 03:59 36.67393 -120.74693 26736 ft 400 kts 320°
2026-05-07 03:59 36.69464 -120.76993 26218 ft 398 kts 320°
2026-05-07 03:59 36.70828 -120.78508 25867 ft 396 kts 320°
2026-05-07 03:59 36.72874 -120.80783 25364 ft 393 kts 320°
2026-05-07 04:00 36.74905 -120.83044 24848 ft 390 kts 320°
2026-05-07 04:00 36.76924 -120.85293 24311 ft 389 kts 320°
2026-05-07 04:00 36.78935 -120.87530 23819 ft 386 kts 320°
2026-05-07 04:00 36.80920 -120.89729 23301 ft 383 kts 320°
2026-05-07 04:01 36.82916 -120.91939 22793 ft 378 kts 320°
2026-05-07 04:01 36.84879 -120.94113 22297 ft 374 kts 320°
2026-05-07 04:01 36.86815 -120.96261 21813 ft 371 kts 320°
2026-05-07 04:01 36.88738 -120.98396 21324 ft 368 kts 320°
2026-05-07 04:02 36.90643 -121.00513 20846 ft 365 kts 320°
2026-05-07 04:02 36.92539 -121.02621 20360 ft 369 kts 320°
2026-05-07 04:02 36.94528 -121.04829 19879 ft 393 kts 320°
2026-05-07 04:02 36.96576 -121.07108 19765 ft 391 kts 320°
2026-05-07 04:03 36.98573 -121.09338 19522 ft 378 kts 320°
2026-05-07 04:03 37.00541 -121.11536 19070 ft 378 kts 320°
2026-05-07 04:03 37.02494 -121.13717 18555 ft 374 kts 320°
2026-05-07 04:03 37.04401 -121.15848 17807 ft 371 kts 320°
2026-05-07 04:04 37.06327 -121.17999 17179 ft 370 kts 320°
2026-05-07 04:04 37.08240 -121.20138 16680 ft 366 kts 320°
2026-05-07 04:04 37.10133 -121.22257 16143 ft 364 kts 320°
2026-05-07 04:04 37.12018 -121.24368 15632 ft 362 kts 320°
2026-05-07 04:05 37.13881 -121.26459 15308 ft 354 kts 319°
2026-05-07 04:05 37.15652 -121.28500 15130 ft 336 kts 319°
2026-05-07 04:05 37.17312 -121.30441 14970 ft 317 kts 318°
2026-05-07 04:05 37.18895 -121.32296 14601 ft 308 kts 318°
2026-05-07 04:06 37.20463 -121.34126 14210 ft 307 kts 318°
2026-05-07 04:06 37.22025 -121.35946 13827 ft 306 kts 318°
2026-05-07 04:06 37.23579 -121.37755 13422 ft 304 kts 318°
2026-05-07 04:06 37.25126 -121.39557 13005 ft 303 kts 318°
2026-05-07 04:07 37.26668 -121.41353 12609 ft 302 kts 318°
2026-05-07 04:07 37.28203 -121.43143 12228 ft 300 kts 318°
2026-05-07 04:07 37.29723 -121.44917 11715 ft 298 kts 318°
2026-05-07 04:07 37.31237 -121.46684 11110 ft 298 kts 318°
2026-05-07 04:08 37.32751 -121.48450 10561 ft 296 kts 318°
2026-05-07 04:08 37.34238 -121.50187 10079 ft 295 kts 317°
2026-05-07 04:08 37.35736 -121.51939 9716 ft 293 kts 318°
2026-05-07 04:08 37.37221 -121.53676 9396 ft 289 kts 318°
2026-05-07 04:09 37.38691 -121.55386 9054 ft 286 kts 318°
2026-05-07 04:09 37.40158 -121.57065 8692 ft 283 kts 319°
2026-05-07 04:09 37.41609 -121.58715 8379 ft 280 kts 319°
2026-05-07 04:09 37.43044 -121.60348 8048 ft 277 kts 319°
2026-05-07 04:10 37.44376 -121.62085 7725 ft 275 kts 309°
2026-05-07 04:10 37.45491 -121.64036 7410 ft 273 kts 307°
2026-05-07 04:10 37.46574 -121.65950 7274 ft 262 kts 307°
2026-05-07 04:10 37.47611 -121.67772 7175 ft 250 kts 308°
2026-05-07 04:11 37.48604 -121.69508 7078 ft 239 kts 308°
2026-05-07 04:11 37.49548 -121.71162 6854 ft 234 kts 307°
2026-05-07 04:11 37.50499 -121.72829 6553 ft 233 kts 308°
2026-05-07 04:11 37.51448 -121.74482 6260 ft 230 kts 308°
2026-05-07 04:12 37.52380 -121.76117 6186 ft 231 kts 308°
2026-05-07 04:12 37.53142 -121.77899 6192 ft 234 kts 290°
2026-05-07 04:12 37.53456 -121.79936 6091 ft 236 kts 280°
2026-05-07 04:12 37.53681 -121.81980 5847 ft 235 kts 280°
2026-05-07 04:13 37.53915 -121.84020 5561 ft 235 kts 280°
2026-05-07 04:13 37.54153 -121.86057 5264 ft 234 kts 281°
2026-05-07 04:13 37.54392 -121.88076 5045 ft 230 kts 280°
2026-05-07 04:13 37.54629 -121.90086 4997 ft 234 kts 280°
2026-05-07 04:14 37.54865 -121.92091 4899 ft 233 kts 280°
2026-05-07 04:14 37.55099 -121.94098 4691 ft 231 kts 280°
2026-05-07 04:14 37.55332 -121.96095 4450 ft 228 kts 280°
2026-05-07 04:14 37.55563 -121.98069 4407 ft 231 kts 281°
2026-05-07 04:15 37.56055 -121.99979 4310 ft 227 kts 300°
2026-05-07 04:15 37.56917 -122.01603 4010 ft 221 kts 309°
2026-05-07 04:15 37.57886 -122.03023 3740 ft 206 kts 311°
2026-05-07 04:15 37.58779 -122.04353 3514 ft 190 kts 309°
2026-05-07 04:16 37.59595 -122.05573 3254 ft 175 kts 309°
2026-05-07 04:16 37.60351 -122.06705 3025 ft 161 kts 308°
2026-05-07 04:16 37.61041 -122.07744 2814 ft 148 kts 309°
2026-05-07 04:16 37.61707 -122.08741 2617 ft 150 kts 309°
2026-05-07 04:17 37.62367 -122.09732 2419 ft 145 kts 309°
2026-05-07 04:17 37.63012 -122.10699 2242 ft 141 kts 309°
2026-05-07 04:17 37.63614 -122.11601 2043 ft 129 kts 308°
2026-05-07 04:17 37.64189 -122.12466 1878 ft 130 kts 308°
2026-05-07 04:18 37.64774 -122.13342 1713 ft 131 kts 308°
2026-05-07 04:18 37.65365 -122.14214 1507 ft 131 kts 308°
2026-05-07 04:18 37.65956 -122.15081 1338 ft 130 kts 308°
2026-05-07 04:18 37.66528 -122.15943 1170 ft 128 kts 306°
2026-05-07 04:19 37.67081 -122.16829 1009 ft 129 kts 306°
2026-05-07 04:19 37.67649 -122.17697 848 ft 126 kts 309°
2026-05-07 04:19 37.68247 -122.18517 666 ft 127 kts 309°
2026-05-07 04:19 37.68821 -122.19361 487 ft 124 kts 307°
2026-05-07 04:20 37.69350 -122.20224 291 ft 126 kts 306°
2026-05-07 04:20 37.69919 -122.21076 135 ft 126 kts 307°
2026-05-07 04:20 37.70468 -122.21913 22 ft 119 kts 308°
2026-05-07 04:21 37.71071 -122.22816 6 ft 34 kts 314°
2026-05-07 04:21 37.71201 -122.22982 6 ft 26 kts 322°
2026-05-07 04:21 37.71338 -122.23098 6 ft 10 kts 333°
2026-05-07 04:21 37.71364 -122.23115 5 ft 6 kts 334°
2026-05-07 04:22 37.71422 -122.23138 4 ft 11 kts 348°
2026-05-07 04:22 37.71491 -122.23118 6 ft 10 kts 61°
2026-05-07 04:22 37.71475 -122.23038 10 ft 10 kts 127°
2026-05-07 04:22 37.71429 -122.22961 11 ft 12 kts 127°
2026-05-07 04:23 37.71370 -122.22878 11 ft 15 kts 132°
2026-05-07 04:23 37.71288 -122.22764 11 ft 21 kts 130°
2026-05-07 04:23 37.71192 -122.22591 10 ft 22 kts 96°
2026-05-07 04:23 37.71284 -122.22440 10 ft 25 kts 45°
2026-05-07 04:24 37.71314 -122.22224 12 ft 29 kts 140°
2026-05-07 04:24 37.71197 -122.22041 10 ft 30 kts 130°
2026-05-07 04:24 37.71055 -122.21853 12 ft 31 kts 135°
2026-05-07 04:24 37.70939 -122.21681 12 ft 22 kts 130°
2026-05-07 04:25 37.70916 -122.21564 12 ft 11 kts 50°
2026-05-07 04:25 37.70974 -122.21498 14 ft 12 kts 39°
2026-05-07 04:25 37.71033 -122.21440 15 ft 9 kts 46°
2026-05-07 04:25 37.71042 -122.21343 14 ft 15 kts 90°
2026-05-07 04:26 37.71036 -122.21256 16 ft 1 kts 150°
2026-05-07 04:26 37.71017 -122.21224 14 ft 0 kts 128°